Hollywood, FL

3:57 AM EST on December 07, 2016 (GMT -0500)
North Perry

Weather History for KHWO - April, 2014

Change the Weather History Date:

Saturday, April 12, 2014

  Actual Average (KFLL) Record (KFLL)
Temperature  
Mean Temperature 74 °F 76 °F  
Max Temperature 84 °F 82 °F 93 °F (1946)
Min Temperature 66 °F 69 °F 46 °F (1918)
Degree Days  
Heating Degree Days 0 0  
Month to date heating degree days 0  
Since 1 July heating degree days 111  
Cooling Degree Days 9 11  
Month to date cooling degree days 123  
Year to date cooling degree days 733  
Growing Degree Days 24 (Base 50)    
Moisture  
Dew Point 63 °F    
Average Humidity 64    
Maximum Humidity 84    
Minimum Humidity 44    
Precipitation  
Precipitation 0.00 in 0.10 in 2.86 in (1929)
Month to date precipitation 1.30  
Year to date precipitation 11.25  
Snow  
Snow 0.00 in - - ()
Month to date snowfall  
Since 1 July snowfall  
Snow Depth -    
Sea Level Pressure  
Sea Level Pressure 30.13 in    
Wind  
Wind Speed 10 mph (ENE)    
Max Wind Speed 20 mph    
Max Gust Speed 26 mph    
Visibility 10 miles    
Events Rain    
T = Trace of Precipitation, MM = Missing Value Source: NWS Daily Summary

Daily Weather History Graph

Daily Weather History Graph

Search for Another Location

Airport or City:

Trip Planner

Search our weather history database for the weather conditions in past years. The results will help you decide how hot, cold, wet, or windy it might be!

Date:

Astronomy

Apr. 12, 2014 Rise Set
Actual Time 7:00 AM EDT 7:42 PM EDT
Civil Twilight 6:37 AM EDT 8:06 PM EDT
Nautical Twilight 6:09 AM EDT 8:34 PM EDT
Astronomical Twilight 5:41 AM EDT 9:02 PM EDT
Moon 5:32 PM EDT (4/12) 5:11 AM EDT (4/12)
Length of Visible Light 13h 29m
Length of Day
12h 42m
Waxing Gibbous, 93% of the Moon is Illuminated
Apr 12
Waxing Gibbous
Apr 15
Full
Apr 22
Last Quarter
Apr 29
New
May 6
First Quarter

Hourly Weather History & Observations

Time (EDT) Temp. Heat Index Dew Point Humidity Pressure Visibility Wind Dir Wind Speed Gust Speed Precip Events Conditions
12:53 AM 75.0 °F - 62.1 °F 64% 30.15 in 10.0 mi East 10.4 mph - N/A   Clear
1:53 AM 73.9 °F - 63.0 °F 68% 30.14 in 10.0 mi East 6.9 mph - N/A   Clear
2:53 AM 73.0 °F - 62.1 °F 68% 30.12 in 10.0 mi ESE 4.6 mph - N/A   Clear
3:53 AM 70.0 °F - 62.1 °F 76% 30.12 in 10.0 mi Calm Calm - N/A   Clear
4:53 AM 68.0 °F - 62.1 °F 81% 30.11 in 10.0 mi Calm Calm - N/A   Partly Cloudy
5:53 AM 68.0 °F - 63.0 °F 84% 30.13 in 10.0 mi NE 3.5 mph - N/A   Scattered Clouds
6:53 AM 66.9 °F - 62.1 °F 84% 30.14 in 10.0 mi NE 4.6 mph - N/A   Clear
7:53 AM 71.1 °F - 64.9 °F 81% 30.16 in 10.0 mi ENE 5.8 mph - N/A   Clear
8:53 AM 78.1 °F - 64.9 °F 64% 30.17 in 10.0 mi ENE 11.5 mph - N/A   Scattered Clouds
9:53 AM 80.1 °F 81.5 °F 63.0 °F 56% 30.18 in 10.0 mi ENE 13.8 mph - N/A   Partly Cloudy
10:53 AM 81.0 °F 82.2 °F 63.0 °F 54% 30.19 in 10.0 mi ENE 13.8 mph - N/A   Partly Cloudy
11:53 AM 82.0 °F 83.1 °F 63.0 °F 52% 30.19 in 10.0 mi ENE 17.3 mph 26.5 mph N/A   Partly Cloudy
12:53 PM 82.9 °F 84.0 °F 63.0 °F 51% 30.17 in 10.0 mi ENE 15.0 mph - N/A   Clear
1:53 PM 82.9 °F 83.3 °F 61.0 °F 47% 30.14 in 10.0 mi NE 16.1 mph 23.0 mph N/A   Clear
2:53 PM 82.0 °F 82.0 °F 57.9 °F 44% 30.13 in 10.0 mi NE 16.1 mph - N/A   Clear
3:53 PM 82.0 °F 82.4 °F 60.1 °F 47% 30.11 in 10.0 mi ENE 19.6 mph - N/A   Partly Cloudy
4:53 PM 81.0 °F 81.7 °F 61.0 °F 50% 30.10 in 10.0 mi NNE 17.3 mph - N/A   Partly Cloudy
5:53 PM 80.1 °F 80.9 °F 60.1 °F 50% 30.09 in 10.0 mi ENE 16.1 mph 24.2 mph N/A   Clear
6:53 PM 77.0 °F - 62.1 °F 60% 30.10 in 10.0 mi ENE 17.3 mph - N/A   Clear
7:53 PM 75.9 °F - 63.0 °F 64% 30.11 in 10.0 mi NE 15.0 mph - N/A   Partly Cloudy
8:53 PM 75.0 °F - 63.0 °F 66% 30.12 in 10.0 mi ENE 12.7 mph - N/A   Clear
9:53 PM 73.9 °F - 64.0 °F 71% 30.12 in 10.0 mi NE 11.5 mph - N/A   Clear
10:53 PM 73.9 °F - 64.0 °F 71% 30.12 in 10.0 mi ENE 9.2 mph - N/A   Partly Cloudy
11:07 PM 73.9 °F - 66.0 °F 76% 30.12 in 10.0 mi East 10.4 mph - 0.00 in Rain Light Rain
11:32 PM 73.9 °F - 64.9 °F 73% 30.11 in 10.0 mi ENE 12.7 mph - 0.00 in   Mostly Cloudy
11:53 PM 73.9 °F - 64.9 °F 73% 30.11 in 10.0 mi East 11.5 mph - 0.00 in   Scattered Clouds